Regional Weather Roundup
Issued by NWS Albany, NY

Home | Current Version | Previous Version | Text Only | Print | Product List | Glossary On
Versions: 1 2 3 4 5 6 7 8 9 10 11 12 13 14 15 16 17 18 19 20 21 22 23 24 25 26 27 28 29 30 31 32 33 34 35 36 37 38 39 40 41 42 43 44 45 46 47 48 49 50
000
ASUS41 KALY 230410
RWRALY

NEW YORK STATE HOURLY WEATHER ROUNDUP
NATIONAL WEATHER SERVICE ALBANY NY
1200 AM EDT FRI JUN 23 2017

NOTE: "FAIR" INDICATES FEW OR NO CLOUDS BELOW 12,000 FEET WITH NO
SIGNIFICANT WEATHER AND/OR NO OBSTRUCTIONS TO VISIBILITY.

NYZ032-033-038>043-046>054-057>066-NYZ062>081-082-084-230500-
EAST


CITY           SKY/WX    TMP DP  RH WIND       PRES   REMARKS
ALBANY         CLOUDY    71  61  70 S5        29.85F
GLENS FALLS    CLOUDY    67  61  81 CALM      29.85F
POUGHKEEPSIE   CLOUDY    71  64  78 CALM      29.87S
NEWBURGH       PTCLDY    75  66  73 SW5       29.91S
MONTGOMERY     PTCLDY    69  65  86 SW3       29.89S
WHITE PLAINS   CLEAR     70  64  83 CALM      29.91S
ISLIP          CLOUDY    72  71  97 SW8       29.91F
NEW YORK CITY  CLOUDY    82  71  69 SW7       29.90S
CENTRAL PARK   CLOUDY    80  69  69 VRB5      29.93S
$$

NYZ005>009-017-018-044>046-055-056-230500-
CENTRAL


CITY           SKY/WX    TMP DP  RH WIND       PRES   REMARKS
FULTON         PTCLDY    68  60  75 SE3       29.81F
SYRACUSE       MOCLDY    69  63  81 SE3       29.81F
ROME           PTCLDY    67  60  78 CALM      29.85S
ELMIRA         NOT AVBL
BINGHAMTON     NOT AVBL
MONTICELLO     CLEAR     70  64  83 CALM      29.96S
$$

NYZ026>034-041>043-087-230500-
NORTH


CITY           SKY/WX    TMP DP  RH WIND       PRES   REMARKS
WATERTOWN      CLOUDY    68  61  78 CALM      29.78F
FORT DRUM      NOT AVBL
OGDENSBURG     MOCLDY    67  60  77 S5        29.78F HAZE
MASSENA        CLOUDY    67  60  78 CALM      29.79F
SARANAC LAKE   CLOUDY    62  56  80 SW6       29.85F
PLATTSBURGH    CLOUDY    66  59  78 CALM      29.82S
$$

NYZ001>004-010>016-019>021-085-230500-
WEST


CITY           SKY/WX    TMP DP  RH WIND       PRES   REMARKS
NIAGARA FALLS  CLOUDY    77  67  71 S12       29.78F
BUFFALO        CLOUDY    78  68  71 S17       29.80F
DUNKIRK        CLOUDY    77  69  76 S20G30    29.82F
JAMESTOWN      CLOUDY    70  64  83 S10       29.91S
WELLSVILLE     PTCLDY    72  65  78 SW12G20   29.95F
ROCHESTER      CLOUDY    77  68  73 SW12      29.80F
PENN YAN       CLOUDY    74  65  73 S7        29.86F
$$

             KEY
       WCI = WIND CHILL INDEX
       VSB = VISIBILITY
       HX  = HEAT INDEX
$$



USA.gov is the U.S. government's official web portal to all federal, state and local government web resources and services.